Weather History for KLXV - October, 2011

Change the Weather History Date:

Monday, October 3, 2011

  Actual Average Record
Temperature  
Mean Temperature 46 °F -  
Max Temperature 62 °F 55 °F 65 °F (1980)
Min Temperature 29 °F 27 °F 18 °F (1978)
Degree Days  
Heating Degree Days 19 24  
Month to date heating degree days 54 72  
Since 1 July heating degree days 1119 1370  
Cooling Degree Days 0 0  
Month to date cooling degree days 0 0  
Year to date cooling degree days 0 0  
Moisture  
Dew Point 29 °F    
Average Humidity 56    
Maximum Humidity 92    
Minimum Humidity 19    
Precipitation  
Precipitation T in 0.03 in 0.27 in (2002)
Month to date precipitation T 0.09  
Year to date precipitation 12.19 10.12  
Snow  
Snow 0.00 in - - ()
Month to date snowfall 0.0  
Snow Depth 0.00 in    
Sea Level Pressure  
Sea Level Pressure 30.06 in    
Wind  
Wind Speed 6 mph (SSE)    
Max Wind Speed 24 mph    
Max Gust Speed 30 mph    
Visibility 10 miles    
Events      
T = Trace of Precipitation, MM = Missing Value Source: NWS Daily Summary

Daily Weather History Graph

Daily Weather History Graph

Search for Another Location

Airport or City:

Trip Planner

Search our weather history database for the weather conditions in past years. The results will help you decide how hot, cold, wet, or windy it might be!

Date:

Astronomy

Oct. 03, 2011 Rise Set
Actual Time 7:03 AM MDT 6:45 PM MDT
Civil Twilight 6:36 AM MDT 7:11 PM MDT
Nautical Twilight 6:05 AM MDT 7:42 PM MDT
Astronomical Twilight 5:33 AM MDT 8:13 PM MDT
Moon 2:00 PM MDT 11:53 PM MDT
Length of Visible Light 12h 35m
Length of Day
11h 42m
Waxing Crescent, 46% of the Moon is Illuminated
Oct 3
Waxing Crescent
Oct 3
First Quarter
Oct 11
Full
Oct 19
Last Quarter
Oct 26
New

Hourly Weather History & Observations

Time (MDT) Temp. Windchill Dew Point Humidity Pressure Visibility Wind Dir Wind Speed Gust Speed Precip Events Conditions
12:53 AM 34.0 °F 28.8 °F 27.0 °F 75% 30.09 in 10.0 mi ENE 5.8 mph - N/A   Clear
1:53 AM 32.0 °F 25.6 °F 26.1 °F 79% 30.09 in 10.0 mi East 6.9 mph - N/A   Clear
2:53 AM 37.0 °F - 28.9 °F 73% 30.07 in 10.0 mi Calm Calm - N/A   Clear
3:53 AM 33.1 °F - 28.0 °F 82% 30.09 in 10.0 mi Calm Calm - N/A   Clear
4:53 AM 32.0 °F 28.7 °F 27.0 °F 82% 30.11 in 10.0 mi ENE 3.5 mph - N/A   Clear
5:53 AM 32.0 °F - 28.0 °F 85% 30.13 in 10.0 mi Calm Calm - N/A   Clear
6:53 AM 28.9 °F - 26.1 °F 89% 30.18 in 10.0 mi Calm Calm - N/A   Clear
7:53 AM 34.0 °F - 28.0 °F 79% 30.19 in 10.0 mi Calm Calm - N/A   Clear
8:53 AM 43.0 °F - 30.9 °F 62% 30.13 in 10.0 mi Calm Calm - N/A   Clear
9:53 AM 48.9 °F - 32.0 °F 52% 30.08 in 10.0 mi Calm Calm - N/A   Clear
10:53 AM 54.0 °F - 30.0 °F 40% 30.07 in 10.0 mi Calm Calm - N/A   Clear
11:53 AM 54.0 °F - 30.0 °F 40% 30.07 in 9.0 mi Variable 4.6 mph - N/A   Mostly Cloudy
12:53 PM 60.1 °F - 19.9 °F 21% 30.03 in 7.0 mi SSW 24.2 mph 29.9 mph N/A   Scattered Clouds
1:53 PM 62.1 °F - 19.9 °F 20% 29.99 in 10.0 mi SW 18.4 mph 26.5 mph N/A   Clear
2:53 PM 59.0 °F - 27.0 °F 29% 29.98 in 10.0 mi South 16.1 mph 27.6 mph N/A   Overcast
3:53 PM 57.0 °F - 33.1 °F 40% 30.04 in 10.0 mi ENE 5.8 mph - 0.00 in   Mostly Cloudy
4:53 PM 57.9 °F - 27.0 °F 31% 30.01 in 10.0 mi SW 3.5 mph - N/A   Scattered Clouds
5:53 PM 54.0 °F - 28.9 °F 38% 30.04 in 10.0 mi SSE 10.4 mph 19.6 mph N/A   Scattered Clouds
6:53 PM 53.1 °F - 28.0 °F 38% 30.07 in 10.0 mi South 8.1 mph - N/A   Overcast
7:53 PM 50.0 °F - 32.0 °F 50% 30.07 in 10.0 mi SSW 13.8 mph 21.9 mph N/A   Overcast
8:53 PM 46.9 °F - 35.1 °F 63% 30.04 in 10.0 mi SSW 16.1 mph 24.2 mph N/A   Mostly Cloudy
9:53 PM 46.9 °F - 34.0 °F 61% 30.00 in 10.0 mi SSW 9.2 mph - N/A   Mostly Cloudy
10:53 PM 43.0 °F 40.3 °F 35.1 °F 74% 29.99 in 10.0 mi East 4.6 mph - N/A   Overcast
11:53 PM 42.1 °F 38.4 °F 34.0 °F 73% 29.99 in 10.0 mi East 5.8 mph - N/A   Overcast